sat.trackr.live / text

‹ back to catalog

ONEWEB-0182

NORAD 48228 · 2021-031U

PAYLOAD ACTIVE UNKNOWN

§ Identity

Operator
Country
UK
Launch date
2021-04-25
Launch site
VOSTO
Launch vehicle
Mass (kg)
RCS (m²)

Purposes: comms

External: N2YO · Heavens-Above · Gunter

§ Orbital elements

Epoch: 2026-09-20T00:34:36.141888Z

Period
109.55 min
Inclination
87.8899°
Eccentricity
0.0001963
Mean motion
13.14501719 rev/d
Perigee alt
1,204.3 km
Apogee alt
1,207.3 km
Semi-major
7,583.9 km
B*
6.1976e-4
RAAN
270.7898°
Arg perigee
93.5084°
Mean anomaly
266.6270°
Rev number
26,089

§ Raw data

ONEWEB-01821 48228U 21031U   26263.02402942  .00000243  00000+0  61976-3 0  99932 48228  87.8899 270.7898 0001963  93.5084 266.6270 13.14501719260890

JSON: /api/v1/satellites/48228 · /tle

For live sub-satellite position, see the globe view (requires WebGL).

§ Visibility from observer

Set your observer location to see the next 7 days of passes ≥ 10°. The values pass through the URL so the page stays shareable.

No JS? Fill the form by hand. The geolocation button needs JavaScript.